GW5799 Weather Reports


Display with metric or nautical units.
time (UTC)temp
F
wind
direction
speed
MPH
gust
MPH
rain 1hr
in
rain 24hr
in
rain mn
in
humidity
%
barometer
mb
20260505014133 65 45 5.0 7.0 0.00 0.00 0.00 62 1029.4
20260505013630 65 100 6.0 7.0 0.00 0.00 0.00 62 1029.4
20260505013127 64 67 3.0 7.0 0.00 0.00 0.00 63 1029.3
20260505012625 64 63 3.0 8.0 0.00 0.00 0.00 64 1029.3
20260505012122 64 63 5.0 6.0 0.00 0.00 0.00 64 1029.3
20260505011618 62 75 4.0 6.0 0.00 0.00 0.00 66 1029.5
20260505011115 62 111 4.0 6.0 0.00 0.00 0.00 67 1029.4
20260505010610 62 91 3.0 6.0 0.00 0.00 0.00 68 1029.4
20260505010107 61 88 5.0 7.0 0.00 0.00 0.00 68 1029.5
20260505005603 62 76 5.0 7.0 0.00 0.00 0.00 68 1029.4
20260505005101 62 79 5.0 6.0 0.00 0.00 0.00 69 1029.4
20260505004558 62 80 4.0 4.0 0.00 0.00 0.00 69 1029.6
20260505004055 60 42 5.0 9.0 0.00 0.00 0.00 70 1029.4
20260505003552 60 64 5.0 8.0 0.00 0.00 0.00 70 1029.1
20260505003049 60 96 6.0 9.0 0.00 0.00 0.00 70 1029.1
20260505002550 60 65 5.0 7.0 0.00 0.00 0.00 70 1029.2
20260505002049 60 74 3.0 6.0 0.00 0.00 0.00 71 1029.2
20260505001545 59 101 4.0 5.0 0.00 0.00 0.00 73 1029.3
20260505001043 59 91 4.0 5.0 0.00 0.00 0.00 74 1029.2
20260505000540 58 96 5.0 5.0 0.00 0.00 0.00 75 1029.0
20260505000038 58 58 3.0 4.0 0.00 0.00 0.00 76 1028.9
20260504235534 57 80 4.0 4.0 0.00 0.00 0.00 77 1028.8
20260504235031 56 79 3.0 6.0 0.00 0.00 0.00 78 1028.7
20260504234528 56 71 3.0 5.0 0.00 0.00 0.00 79 1028.8
20260504234025 56 82 4.0 4.0 0.00 0.00 0.00 80 1028.6
20260504233520 55 61 2.0 4.0 0.00 0.00 0.00 80 1028.5
20260504233017 55 104 3.0 4.0 0.00 0.00 0.00 81 1028.6
20260504232514 54 92 2.0 4.0 0.00 0.00 0.00 82 1028.4
20260504232012 54 79 3.0 4.0 0.00 0.00 0.00 82 1028.4
20260504231508 53 69 3.0 4.0 0.00 0.00 0.00 82 1028.1
20260504231004 53 97 2.0 4.0 0.00 0.00 0.00 83 1028.2
20260504230500 53 103 3.0 4.0 0.00 0.00 0.00 83 1028.1
20260504230000 53 66 2.0 4.0 0.00 0.00 0.00 83 1028.1
20260504225456 53 29 3.0 4.0 0.00 0.00 0.00 82 1027.9
20260504224953 53 54 3.0 4.0 0.00 0.00 0.00 82 1027.8
20260504224450 53 82 3.0 6.0 0.00 0.00 0.00 82 1027.6
20260504223947 53 71 4.0 5.0 0.00 0.00 0.00 82 1027.6
20260504223443 53 83 4.0 5.0 0.00 0.00 0.00 82 1027.7
20260504222938 53 52 3.0 3.0 0.00 0.00 0.00 81 1027.7
20260504222437 54 60 3.0 3.0 0.00 0.00 0.00 81 1027.7
20260504221934 54 33 1.0 5.0 0.00 0.00 0.00 81 1027.6
20260504221431 54 70 7.0 8.0 0.00 0.00 0.00 81 1027.7
20260504220928 55 75 5.0 9.0 0.00 0.00 0.00 81 1027.6
20260504220424 55 91 8.0 8.0 0.00 0.00 0.00 80 1027.5
20260504215922 55 82 10.0 12.0 0.00 0.00 0.00 81 1027.6
20260504215418 55 88 6.0 14.0 0.00 0.00 0.00 81 1027.5
20260504214915 54 69 6.0 10.0 0.00 0.00 0.00 82 1027.3
20260504214411 54 74 7.0 16.0 0.00 0.00 0.00 82 1027.4
20260504213908 54 83 7.0 14.0 0.00 0.00 0.00 82 1027.3
20260504213404 54 81 8.0 12.0 0.00 0.00 0.00 83 1027.4
20260504212902 54 86 6.0 13.0 0.00 0.00 0.00 83 1027.3
20260504212357 54 99 8.0 11.0 0.00 0.00 0.00 84 1027.4
20260504211855 54 84 6.0 10.0 0.00 0.00 0.00 84 1027.4
20260504211351 54 89 4.0 10.0 0.00 0.00 0.00 85 1027.5
20260504210849 53 73 5.0 12.0 0.00 0.00 0.00 86 1027.6
20260504210345 53 95 7.0 10.0 0.00 0.00 0.00 86 1027.5
20260504205843 53 73 4.0 6.0 0.00 0.00 0.00 87 1027.6
20260504205341 52 79 5.0 9.0 0.00 0.00 0.00 88 1027.6
20260504204838 51 99 8.0 9.0 0.00 0.00 0.00 88 1027.7
20260504204337 51 107 3.0 4.0 0.00 0.00 0.00 88 1027.6
20260504203836 51 100 3.0 5.0 0.00 0.00 0.00 89 1027.6
20260504203332 51 91 4.0 4.0 0.00 0.00 0.00 89 1027.7
20260504202828 50 96 2.0 4.0 0.00 0.00 0.00 89 1027.6
20260504202325 50 110 3.0 5.0 0.00 0.00 0.00 90 1027.7
20260504201822 50 111 3.0 4.0 0.00 0.00 0.00 90 1027.7
20260504201319 49 126 2.0 3.0 0.00 0.00 0.00 90 1027.5
20260504200817 49 103 3.0 4.0 0.00 0.00 0.00 90 1027.6
20260504200313 48 136 2.0 3.0 0.00 0.00 0.00 90 1027.5
20260504195809 48 147 0.0 2.0 0.00 0.00 0.00 89 1027.8
20260504195305 48 155 1.0 2.0 0.00 0.00 0.00 90 1027.7
20260504194802 48 166 1.0 1.0 0.00 0.00 0.00 89 1027.8
20260504194258 48 143 1.0 2.0 0.00 0.00 0.00 89 1027.7
20260504193754 48 127 2.0 2.0 0.00 0.00 0.00 89 1027.6
20260504193252 48 126 0.0 1.0 0.00 0.00 0.00 89 1027.7
20260504192750 48 173 0.0 2.0 0.00 0.00 0.00 89 1027.7
20260504192248 48 195 2.0 2.0 0.00 0.00 0.00 89 1027.7
20260504191747 48 214 1.0 2.0 0.00 0.00 0.00 88 1027.9
20260504191243 48 175 0.0 1.0 0.00 0.00 0.00 88 1027.8
20260504190739 49 160 2.0 2.0 0.00 0.00 0.00 88 1028.0
20260504190235 49 162 2.0 3.0 0.00 0.00 0.00 88 1028.0
20260504185732 49 188 1.0 2.0 0.00 0.00 0.00 88 1027.9
20260504185229 49 181 1.0 3.0 0.00 0.00 0.00 88 1028.1
20260504184725 49 196 3.0 3.0 0.00 0.00 0.00 89 1028.1
20260504184221 49 181 1.0 2.0 0.00 0.00 0.00 88 1028.2
20260504183717 49 187 1.0 3.0 0.00 0.00 0.00 88 1028.1
20260504183214 49 203 1.0 2.0 0.00 0.00 0.00 88 1028.1
20260504182712 49 188 1.0 3.0 0.00 0.00 0.00 88 1028.3
20260504182209 49 183 2.0 2.0 0.00 0.00 0.00 88 1028.1
20260504181706 49 169 1.0 2.0 0.00 0.00 0.00 87 1027.9
20260504181204 49 177 1.0 2.0 0.00 0.00 0.00 87 1028.1
20260504180703 49 155 0.0 2.0 0.00 0.00 0.00 87 1028.0
20260504180201 50 157 0.0 1.0 0.00 0.00 0.00 87 1028.2
20260504175658 50 147 0.0 2.0 0.00 0.00 0.00 87 1028.1
20260504175154 50 132 1.0 2.0 0.00 0.00 0.00 86 1028.0
20260504174653 50 149 2.0 4.0 0.00 0.00 0.00 87 1028.1
20260504174149 50 121 3.0 3.0 0.00 0.00 0.00 87 1028.2
20260504173646 51 128 2.0 3.0 0.00 0.00 0.00 87 1028.3
20260504173143 51 119 3.0 4.0 0.00 0.00 0.00 87 1028.3
20260504172640 51 137 3.0 4.0 0.00 0.00 0.00 87 1028.3
20260504172137 51 145 3.0 4.0 0.00 0.00 0.00 87 1028.5
20260504171633 51 138 5.0 5.0 0.00 0.00 0.00 87 1028.3
20260504171130 50 130 3.0 5.0 0.00 0.00 0.00 87 1028.3
20260504170626 50 132 3.0 4.0 0.00 0.00 0.00 87 1028.4
20260504170124 49 151 2.0 3.0 0.00 0.00 0.00 86 1028.6
20260504151010 55 133 6.0 7.0 0.00 0.00 0.00 79 1028.6
20260504150507 55 127 6.0 6.0 0.00 0.00 0.00 79 1028.7
20260504140933 56 131 5.0 8.0 0.00 0.00 0.00 79 1029.1
20260504140429 56 138 6.0 7.0 0.00 0.00 0.00 78 1029.4
20260504130354 58 133 7.0 8.0 0.00 0.00 0.00 76 1028.8
20260504120317 59 142 6.0 8.0 0.00 0.00 0.00 77 1028.6
20260504110241 61 152 5.0 8.0 0.00 0.00 0.00 75 1028.5
20260504100205 62 198 4.0 5.0 0.00 0.00 0.00 74 1028.0
20260504090128 65 219 14.0 14.0 0.00 0.00 0.00 70 1027.7
20260504081558 67 218 9.0 16.0 0.00 0.00 0.00 65 1028.0
20260504081054 67 223 9.0 15.0 0.00 0.00 0.00 64 1028.1
20260504080551 67 221 13.0 18.0 0.00 0.00 0.00 63 1028.0
20260504050403 70 259 2.0 4.0 0.00 0.00 0.00 51 1028.4
20260504045900 71 357 4.0 5.0 0.00 0.00 0.00 50 1028.4
20260504045355 71 118 2.0 8.0 0.00 0.00 0.00 50 1028.7
20260504044852 71 166 2.0 8.0 0.00 0.00 0.00 50 1028.7
20260504044350 70 286 0.0 4.0 0.00 0.00 0.00 50 1028.6
20260504043847 69 344 0.0 4.0 0.00 0.00 0.00 51 1029.0
20260504043344 69 68 4.0 7.0 0.00 0.00 0.00 50 1028.9
20260504042841 69 103 8.0 9.0 0.00 0.00 0.00 52 1029.0
20260504042337 70 31 3.0 6.0 0.00 0.00 0.00 52 1029.0
20260504041834 71 60 4.0 4.0 0.00 0.00 0.00 51 1029.3
20260504041330 69 134 2.0 7.0 0.00 0.00 0.00 54 1029.3
20260504040826 69 352 2.0 5.0 0.00 0.00 0.00 54 1029.2
20260504040324 68 10 8.0 10.0 0.00 0.00 0.00 54 1029.5
20260504035820 69 359 3.0 7.0 0.00 0.00 0.00 53 1029.5
20260504035318 70 79 5.0 6.0 0.00 0.00 0.00 53 1029.4
20260504034815 68 88 1.0 5.0 0.00 0.00 0.00 55 1029.7
20260504034313 69 85 4.0 7.0 0.00 0.00 0.00 55 1029.8
20260504033809 68 57 5.0 6.0 0.00 0.00 0.00 55 1030.0
20260504033307 68 25 3.0 7.0 0.00 0.00 0.00 55 1029.9
20260504032803 67 76 4.0 7.0 0.00 0.00 0.00 56 1029.8
20260504032300 68 103 8.0 9.0 0.00 0.00 0.00 56 1029.9
20260504031757 67 57 5.0 7.0 0.00 0.00 0.00 57 1030.0
20260504031254 67 99 7.0 10.0 0.00 0.00 0.00 58 1029.9
20260504030750 67 87 7.0 11.0 0.00 0.00 0.00 58 1029.9
20260504030248 67 60 9.0 10.0 0.00 0.00 0.00 58 1030.0
20260504025744 66 98 11.0 11.0 0.00 0.00 0.00 58 1030.2
20260504025241 66 74 7.0 12.0 0.00 0.00 0.00 58 1030.2
20260504024738 67 26 5.0 7.0 0.00 0.00 0.00 57 1030.2
20260504024234 67 83 7.0 11.0 0.00 0.00 0.00 58 1030.2
20260504023731 67 85 5.0 9.0 0.00 0.00 0.00 59 1030.2
20260504023227 66 36 8.0 8.0 0.00 0.00 0.00 61 1030.3
20260504022723 65 48 4.0 11.0 0.00 0.00 0.00 63 1030.3
20260504022220 65 28 8.0 9.0 0.00 0.00 0.00 62 1030.2
20260504021717 65 73 10.0 11.0 0.00 0.00 0.00 63 1030.3
20260504021214 64 98 7.0 10.0 0.00 0.00 0.00 64 1030.4
20260504020711 64 84 10.0 11.0 0.00 0.00 0.00 64 1030.2
20260504020207 64 98 8.0 11.0 0.00 0.00 0.00 63 1030.2
20260504015704 64 59 6.0 10.0 0.00 0.00 0.00 65 1030.4
20260504015200 64 91 8.0 11.0 0.00 0.00 0.00 66 1030.3
20260504014655 63 67 5.0 11.0 0.00 0.00 0.00 67 1030.3